Location: Chassagnes
(44.4047°N, 4.1657°E)
Time: 12:48:00
(UTC+00:00)

ATLAS 2AS CENTAUR R/B - Pass Details

Date: 27 October 2020
Orbit: 939 x 1273 km, 63.7° (Epoch: 23 November)

Event Time Altitude Azimuth Distance (km) Brightness Sun altitude
Rises 19:43:56 0° 323° (NW) 4,142 6.5 -33.4°
Reaches altitude 10° 19:46:48 10° 325° (NW) 3,134 5.7 -33.9°
Enters shadow 19:52:43 56° 347° (NNW) 1,337 3.2 -34.9°
